Theta_e
313 316 316 318 320 320 318 317 315 315 314 313 314 314 314 313 314 314 313 316 313 314 318 315 314 314 315 315 313 322 331 330 333 339 341 341 342 342 342 343 345 345 345 345 344 342 340 340 340 340 338 334 332 331 329 328 328 328 329 329 331 333 334 335 336 336 335 333 331 330 329 328 329 330 331 332 332 332 332 333 333 333 332 333 333 332
314 317 320 321 322 321 321 321 317 314 313 312 312 312 313 312 313 314 313 316 314 315 322 318 313 314 313 315 316 323 339 340 335 338 339 340 341 341 341 342 344 343 343 344 343 341 339 340 340 339 337 334 332 331 329 328 327 328 328 328 330 332 333 335 335 334 334 333 331 327 327 328 329 330 332 333 333 332 332 333 333 333 333 333 333 332
316 318 321 319 316 316 319 321 317 314 315 314 313 313 314 314 314 315 317 319 316 315 323 321 312 314 317 320 323 325 333 336 333 336 338 339 340 339 340 341 341 340 340 342 341 339 339 339 339 338 337 334 332 331 329 327 327 328 329 329 330 332 334 335 334 333 333 333 331 327 326 327 329 331 333 334 333 332 332 333 333 333 333 333 332 332
318 321 319 314 313 315 316 318 317 315 316 316 315 314 315 315 312 316 321 322 319 315 320 319 317 326 333 331 328 319 317 324 331 335 336 337 339 338 340 339 337 337 338 339 338 337 337 338 338 338 337 335 334 333 331 330 331 333 333 333 332 333 335 336 335 334 333 333 331 329 327 326 328 331 333 334 333 333 333 333 333 333 332 332 331 331
318 318 315 314 316 317 315 317 317 315 317 321 319 315 315 315 312 315 318 321 325 323 321 322 324 333 337 334 329 319 312 316 323 329 333 335 337 337 338 338 337 337 338 337 337 337 338 338 338 338 338 337 335 334 333 332 333 334 334 334 334 334 336 337 335 335 335 332 330 329 329 328 330 332 334 334 334 334 334 333 333 332 332 332 331 331
316 314 314 316 316 315 314 316 318 317 318 321 321 318 315 316 314 314 316 321 327 325 319 320 320 323 332 335 331 323 317 318 322 327 330 330 333 335 336 337 337 337 337 337 337 338 338 338 338 337 337 336 335 334 332 330 328 329 329 331 333 333 335 335 334 334 335 332 327 326 328 329 331 333 334 333 333 333 334 333 333 333 332 332 331 331
315 313 314 317 317 316 315 315 317 318 317 317 323 322 316 316 315 314 317 319 322 321 317 319 320 321 328 328 324 323 322 324 327 330 330 328 329 332 334 335 336 336 336 336 337 338 338 338 337 337 337 336 335 334 333 332 327 325 324 326 328 330 332 334 332 332 333 332 328 325 326 327 329 332 333 333 333 333 333 333 333 333 332 332 332 331
315 315 315 316 317 316 316 315 316 316 316 318 326 325 318 317 316 317 320 319 320 322 321 325 325 321 322 321 322 325 327 327 330 333 331 329 327 328 332 333 334 335 335 336 336 337 337 337 337 337 337 337 335 334 334 332 330 326 325 325 326 328 331 333 332 331 332 332 329 326 327 327 328 330 332 333 334 333 333 332 332 333 333 332 331 330
315 317 317 316 316 316 316 317 315 315 315 319 324 322 317 317 316 318 321 322 321 318 320 328 325 316 321 328 328 330 333 330 331 334 332 331 329 329 330 330 331 333 334 335 335 335 337 336 337 337 337 337 335 334 332 331 330 328 327 328 329 328 330 332 332 332 331 330 328 328 328 329 329 330 332 333 333 332 332 331 331 332 332 331 330 330
313 315 316 315 317 317 317 316 314 314 315 317 319 317 316 318 320 321 320 321 321 316 319 328 324 314 321 334 333 332 336 332 330 334 332 331 332 331 330 330 330 331 333 334 334 335 336 336 336 337 337 337 336 334 333 330 328 326 326 328 329 329 329 331 332 332 332 331 329 328 329 330 332 332 332 332 332 332 332 332 332 332 332 331 329 330
312 313 314 314 315 316 316 315 313 314 315 314 317 316 315 321 327 331 332 326 318 318 325 329 323 318 322 333 332 329 332 332 331 334 332 330 331 331 331 330 330 330 331 333 334 335 336 336 336 337 336 337 336 335 334 332 330 329 327 327 328 328 328 330 332 333 333 331 328 327 328 331 333 332 331 331 331 331 331 331 331 332 331 330 329 329
313 312 313 315 314 314 314 314 312 313 313 313 318 317 316 322 324 329 333 323 315 323 331 328 320 319 324 329 330 327 328 331 332 332 331 330 330 330 331 331 330 330 331 331 332 333 335 336 336 336 336 336 336 335 334 333 332 331 330 329 328 328 328 329 331 333 332 330 328 328 329 331 332 332 331 331 331 331 331 330 331 331 331 330 330 330
315 313 314 314 314 314 314 315 314 313 313 313 318 318 317 320 318 322 328 322 321 325 323 321 317 319 326 326 326 327 326 328 330 330 330 329 329 329 330 331 331 331 331 331 331 332 333 335 335 335 336 335 335 334 333 333 333 332 331 331 330 329 327 329 332 333 331 329 329 330 331 332 332 331 331 330 330 331 331 330 329 330 331 330 329 329
315 315 314 314 315 314 314 316 316 316 314 314 317 318 318 320 317 319 324 320 321 321 317 318 316 320 328 327 325 326 325 326 327 327 328 328 327 328 327 328 329 329 330 330 330 331 332 333 334 333 334 334 333 331 330 330 331 331 331 331 332 331 329 330 332 332 329 329 331 332 332 333 333 332 331 330 330 331 331 330 329 329 330 329 328 328
316 317 318 316 314 315 315 315 317 319 316 313 316 317 318 324 323 320 323 321 319 319 319 318 314 321 332 330 325 326 325 325 326 326 327 327 326 326 326 326 327 326 327 327 328 330 331 332 332 332 333 333 332 331 329 329 328 329 329 330 332 332 331 331 331 330 329 329 332 332 331 332 333 333 332 331 331 331 330 329 329 329 329 329 329 327
312 317 321 317 312 314 315 314 315 316 315 313 314 316 316 322 325 320 320 324 323 322 320 319 319 323 329 328 324 325 326 325 326 326 326 326 326 326 326 326 325 325 325 325 326 327 327 329 330 331 332 332 333 332 331 330 328 328 328 330 331 332 332 331 330 329 329 329 330 330 330 331 332 333 333 332 330 331 330 329 328 328 329 329 328 328
313 317 321 315 313 315 314 314 315 314 318 317 313 317 317 316 321 320 317 318 321 320 318 322 328 327 327 328 326 325 326 326 327 327 327 327 326 326 326 326 325 325 325 325 325 325 325 326 326 327 329 330 331 331 331 330 329 328 328 329 331 331 332 332 329 327 328 328 328 329 329 330 331 331 332 331 330 330 331 330 328 328 328 328 328 327
315 317 320 316 313 316 312 313 316 313 317 319 315 317 316 312 318 325 324 321 319 320 320 323 330 331 330 331 328 326 328 328 327 327 327 327 327 326 325 324 324 325 325 325 325 325 325 325 326 326 326 327 328 329 329 329 329 329 328 329 330 330 330 330 329 326 325 326 326 327 329 330 331 332 331 331 329 329 330 330 329 328 328 328 328 328
313 315 322 318 313 316 314 313 317 315 313 317 317 315 315 317 320 320 321 320 318 319 319 319 325 329 329 329 328 328 329 327 327 327 327 327 325 324 323 322 324 325 325 325 325 326 326 326 327 327 326 326 327 328 328 329 329 330 329 329 329 330 329 328 328 326 325 324 325 327 330 331 332 332 332 330 329 329 330 330 329 329 328 328 328 328
316 314 321 320 313 314 316 316 321 320 314 314 315 312 316 325 325 318 317 319 318 320 318 318 325 329 328 328 329 328 327 327 328 327 326 324 322 322 321 321 323 324 324 325 326 326 327 327 327 327 327 327 327 328 327 328 329 328 329 329 329 330 329 328 328 327 325 325 326 328 330 331 332 332 332 330 329 330 330 330 330 330 329 328 328 327
315 311 319 325 317 314 318 318 320 322 317 314 316 315 314 318 320 318 318 318 319 323 323 322 327 328 326 328 328 327 325 326 326 325 324 322 320 319 318 318 321 323 323 325 326 326 327 327 326 326 326 326 327 327 327 327 328 327 327 328 328 329 329 328 329 328 327 327 328 329 330 331 332 332 332 331 330 330 330 330 330 329 328 328 327 328
315 315 324 326 318 316 320 318 317 318 318 319 323 321 316 316 318 319 318 318 320 322 323 326 330 328 325 326 325 324 325 325 324 323 321 319 317 316 316 317 320 322 323 324 325 326 326 326 325 324 324 324 325 326 326 327 327 326 326 326 326 327 328 328 329 329 329 329 329 330 331 331 331 331 331 330 330 330 330 330 329 328 328 327 327 328
321 324 323 318 315 317 319 318 318 319 320 324 326 325 323 323 324 325 323 323 323 319 319 327 332 327 324 324 324 323 324 323 322 320 319 316 315 315 315 316 318 320 322 322 323 324 324 325 324 324 324 323 324 325 325 326 326 326 327 327 327 327 327 328 329 329 330 330 330 331 330 330 330 331 331 330 330 331 330 329 328 327 328 328 327 327
321 323 319 315 317 320 320 319 319 320 323 326 327 325 326 325 325 328 328 329 329 323 322 329 331 325 323 324 323 323 323 321 320 318 317 315 314 315 315 316 316 318 320 320 321 322 323 324 324 324 324 323 324 324 324 325 326 326 327 327 327 328 328 329 329 329 330 330 330 330 329 330 329 328 330 330 330 330 329 328 328 328 328 328 328 327
319 320 321 317 316 319 319 319 321 323 325 327 327 325 324 324 324 322 323 329 330 322 323 330 330 326 325 324 323 322 320 318 316 315 314 314 313 314 316 318 317 318 320 321 321 321 323 324 324 323 323 323 323 324 323 324 325 325 327 327 327 327 328 329 329 329 329 329 329 328 328 329 328 327 328 330 330 329 328 328 329 329 328 328 328 327
322 323 327 325 320 319 321 323 324 325 325 325 325 324 324 325 325 320 322 330 326 319 323 331 328 325 326 325 322 320 317 316 315 313 312 311 311 311 314 317 317 318 320 320 320 320 321 322 322 322 322 322 323 323 323 323 323 324 325 325 325 326 327 328 328 328 329 329 329 328 328 328 327 326 328 329 329 328 327 328 328 327 327 327 327 326
327 324 327 330 327 326 328 326 322 323 327 327 325 324 324 324 325 325 328 331 326 323 326 328 326 326 327 325 322 319 316 315 313 312 310 309 309 310 311 313 315 317 318 317 317 318 319 320 321 321 322 321 321 321 321 322 322 322 322 323 324 324 324 326 326 327 328 329 329 329 329 328 327 327 327 328 328 327 328 327 326 325 326 326 326 326
333 325 322 327 325 323 325 323 319 321 324 323 323 323 322 323 329 332 329 323 321 326 327 324 325 328 326 322 319 316 314 312 310 310 309 308 307 308 309 312 314 316 317 316 317 317 317 318 319 319 320 321 320 320 320 321 321 321 321 322 322 322 323 324 325 325 326 327 328 328 329 329 328 327 327 327 327 327 328 327 326 327 326 324 325 326
334 327 321 323 321 318 319 319 319 320 316 314 317 319 318 323 330 330 324 318 320 328 329 325 324 324 320 317 314 312 311 310 308 308 307 307 307 306 308 310 313 314 314 315 315 316 316 316 317 318 319 320 320 320 321 320 320 320 320 321 322 322 322 323 324 325 326 326 327 328 328 329 328 327 327 327 327 327 327 326 326 327 325 323 324 326
327 326 321 321 320 317 316 315 316 318 315 313 314 314 316 320 322 321 320 318 320 325 326 322 320 317 314 312 310 309 308 307 306 306 306 306 305 306 306 307 309 311 312 312 313 314 315 316 316 318 319 320 320 320 320 320 319 319 320 321 322 322 322 323 323 324 325 325 326 327 328 328 327 327 327 327 327 326 325 326 325 324 323 323 325 325
320 322 320 322 322 317 315 313 313 315 314 314 314 313 315 317 318 319 320 319 320 321 318 317 317 313 311 310 308 307 307 306 306 305 305 305 304 305 305 305 307 310 310 311 312 313 315 316 316 317 318 319 319 319 319 319 319 319 319 320 321 322 322 323 323 323 325 325 326 326 327 328 327 327 327 327 326 325 325 326 325 323 323 324 325 325
322 320 318 325 325 318 314 313 313 314 314 315 315 314 315 317 318 318 318 318 319 319 316 317 318 314 309 308 307 306 305 305 304 303 303 304 304 304 304 304 306 307 308 309 310 312 314 316 316 317 317 317 318 318 318 318 319 319 319 320 321 321 321 323 323 323 324 325 325 326 327 328 327 326 326 326 325 325 325 325 324 325 325 325 325 324
324 323 320 323 324 318 314 313 314 317 320 319 315 311 312 315 316 316 315 315 317 317 317 319 317 311 307 307 306 305 304 304 303 303 303 303 303 303 303 303 304 305 306 307 309 311 313 314 314 315 315 315 317 318 318 318 318 318 318 319 321 321 322 323 323 323 324 324 325 325 326 327 327 326 326 326 325 325 325 325 324 325 325 325 324 322
323 326 322 321 322 319 315 313 315 320 322 317 311 309 311 313 314 314 313 313 314 314 312 312 310 307 306 305 304 304 303 302 302 302 302 303 302 302 302 302 303 305 306 307 308 309 311 312 312 312 313 314 315 316 316 317 318 318 318 319 320 321 323 323 323 323 323 324 324 324 325 326 326 326 327 326 325 324 324 324 324 324 325 325 323 321
325 324 321 319 319 318 314 313 318 320 316 311 309 309 310 311 310 311 310 309 310 309 307 307 306 305 305 304 303 303 302 301 302 301 301 302 303 302 302 303 304 305 306 307 307 308 309 310 311 311 312 313 314 315 316 317 318 319 319 318 319 320 322 322 323 323 323 323 324 323 324 325 325 326 326 326 325 324 323 324 324 324 325 324 323 321
326 324 320 317 316 316 315 315 317 315 310 309 310 309 310 310 310 311 311 310 308 307 307 306 305 303 303 302 302 302 301 301 301 300 301 302 302 303 303 303 304 305 306 306 306 307 308 309 309 310 311 312 313 315 316 316 317 318 318 318 318 318 320 320 322 322 322 322 323 323 324 324 325 325 325 324 324 324 323 324 324 324 324 324 323 321
323 324 321 318 315 315 316 314 313 312 311 311 310 308 308 309 309 311 312 310 308 306 306 305 303 303 302 302 301 301 301 301 301 300 300 301 302 302 303 303 304 304 304 305 305 306 307 307 308 309 309 310 312 314 315 315 315 316 317 317 317 318 318 318 319 320 321 321 321 322 323 323 324 324 324 323 323 322 323 323 323 323 323 323 323 321
317 319 321 320 315 312 314 313 312 314 314 312 309 306 306 306 307 308 310 310 307 306 305 304 303 303 302 302 301 301 302 304 302 300 300 300 300 301 302 302 303 303 304 304 305 305 306 306 307 307 309 310 311 312 313 312 313 314 315 316 316 317 317 317 318 319 320 320 320 321 322 322 323 323 323 323 323 322 322 322 323 322 321 322 322 321
313 315 319 320 315 313 316 316 314 314 312 309 306 305 305 305 306 308 311 312 308 305 304 303 303 302 302 302 302 301 304 307 303 299 299 300 300 300 301 301 302 302 303 303 304 305 305 305 306 306 308 310 310 311 311 311 312 314 315 315 315 316 316 316 317 318 318 318 319 320 321 321 321 321 321 322 322 322 321 321 322 322 320 320 321 320
315 316 318 318 316 315 317 316 313 311 309 306 305 304 304 304 305 310 316 314 308 305 304 303 303 303 302 302 302 302 303 305 301 298 299 300 300 300 300 300 301 301 302 302 303 304 305 305 305 306 307 308 308 308 309 310 311 313 313 313 314 314 313 312 313 316 317 317 318 319 320 320 320 320 320 320 320 320 320 320 321 321 319 318 318 319
313 314 314 315 315 314 313 312 310 309 306 304 304 303 304 306 309 314 315 310 306 306 305 303 303 303 303 303 303 300 300 300 299 298 299 300 300 300 301 300 301 301 301 302 302 303 304 305 305 306 306 305 305 305 306 308 310 311 310 311 312 311 309 308 310 313 316 317 318 318 319 319 320 320 319 319 319 319 319 318 318 319 318 318 318 318
312 311 311 312 312 310 310 310 310 309 305 303 303 303 304 309 313 312 308 305 306 306 304 303 303 303 303 302 300 299 298 299 299 299 300 300 301 301 301 301 301 301 301 301 302 303 304 304 304 305 305 304 304 304 304 305 307 308 308 309 308 307 308 308 308 310 313 315 317 318 318 319 319 319 319 319 319 318 318 317 316 315 316 318 318 318
308 309 309 309 308 308 309 310 311 310 305 302 303 305 306 309 309 306 302 303 305 305 304 303 303 303 302 300 298 298 299 299 300 300 300 301 301 301 301 301 300 300 300 301 301 302 303 303 304 304 304 304 304 305 304 305 305 305 305 304 302 302 305 308 308 309 311 313 314 315 317 318 319 320 319 319 319 318 317 317 316 315 315 315 316 316
305 307 307 305 304 308 311 309 308 305 302 301 304 305 305 305 304 303 302 302 303 303 304 303 301 301 301 299 298 299 299 299 300 300 300 300 300 300 300 300 300 299 299 299 300 300 301 302 302 303 303 304 304 305 305 305 305 305 305 303 301 301 302 304 306 309 310 310 310 311 312 313 316 318 319 319 319 318 317 316 316 316 315 315 315 315
304 304 305 303 302 304 306 304 302 301 301 302 303 303 303 303 303 303 303 301 301 302 302 302 300 299 299 299 298 299 299 299 300 300 300 300 299 299 299 299 299 299 298 298 299 299 299 300 301 301 302 302 302 303 304 305 306 306 305 304 304 304 304 304 305 306 307 308 308 308 308 308 310 313 316 318 319 318 318 318 318 318 317 317 317 317
303 302 303 302 301 302 302 301 301 301 301 301 302 302 302 302 302 302 302 301 300 300 301 300 299 298 298 299 299 299 299 299 299 299 299 299 299 299 299 299 299 299 299 299 298 298 298 299 299 299 300 300 300 301 302 303 304 305 304 304 304 305 305 305 305 305 306 306 305 305 305 305 305 307 311 315 317 318 318 318 318 318 317 317 317 317
302 302 303 302 302 303 303 301 301 301 301 300 301 301 301 301 301 301 301 300 299 299 299 299 298 298 298 299 299 299 299 299 299 299 299 299 299 299 299 299 299 299 299 299 299 298 298 298 298 299 299 299 299 300 301 302 302 303 303 303 304 305 305 306 306 306 306 306 305 305 304 303 302 303 306 310 313 316 317 317 317 317 316 316 316 316
303 303 303 302 302 302 302 301 300 301 300 300 300 300 300 300 300 300 300 299 299 299 299 298 299 299 299 298 298 298 298 298 298 299 298 298 299 299 299 299 299 299 299 299 298 298 298 298 298 298 298 298 298 299 301 301 301 301 301 301 302 302 303 304 305 305 305 306 306 306 306 305 303 302 302 304 307 310 313 315 315 314 313 313 312 313
303 303 302 302 301 301 301 301 300 300 300 300 300 300 299 300 299 299 299 299 299 299 299 299 299 299 298 298 298 298 298 298 298 298 298 298 298 298 299 299 299 299 298 298 298 298 298 298 298 298 298 298 298 298 299 301 301 300 300 300 300 300 301 302 303 303 303 304 305 305 306 306 305 304 302 302 302 304 307 309 311 312 311 310 309 310
303 302 301 302 302 302 301 301 301 301 300 300 300 299 299 299 299 299 299 299 299 299 299 299 299 298 298 297 297 297 297 297 297 297 297 298 298 298 299 299 299 298 298 298 298 298 298 298 298 298 298 298 298 298 299 300 301 301 301 301 301 300 300 301 301 302 302 302 303 304 304 305 306 305 305 304 303 302 302 303 304 306 307 307 307 307
302 301 301 302 303 302 302 301 301 300 300 299 300 300 299 299 299 299 299 299 299 299 299 298 298 298 297 297 297 297 298 297 297 297 297 297 297 298 298 298 298 298 298 298 298 298 298 298 298 297 297 298 298 299 299 300 301 301 301 301 301 301 301 302 302 302 301 301 301 301 302 303 303 304 304 303 303 302 301 301 301 302 302 302 302 303
Wind_Speed
7 5 3 5 6 6 6 7 7 6 5 4 3 2 1 1 5 5 5 5 2 2 6 8 9 11 13 5 3 5 9 10 12 16 18 19 19 21 20 22 26 27 28 27 26 25 23 22 20 19 20 19 17 15 14 13 14 15 16 16 16 17 18 20 24 27 28 27 23 21 22 23 24 24 24 22 20 20 19 19 18 16 16 16 16 16
4 5 5 7 8 7 7 6 5 4 2 1 1 1 2 2 5 6 4 5 2 2 5 5 6 10 12 3 2 6 9 7 14 18 19 22 22 24 24 25 29 28 28 28 28 27 24 23 21 20 21 20 18 16 14 14 14 15 16 15 15 17 19 20 22 25 26 25 22 20 20 23 24 25 24 22 20 20 19 18 16 16 15 15 15 15
2 4 8 8 6 5 4 4 5 3 2 1 2 1 3 3 4 6 4 5 2 2 5 4 5 8 9 5 4 5 6 8 19 21 23 28 24 23 25 27 30 29 30 31 30 28 26 24 22 21 22 21 19 15 13 13 14 16 17 16 16 18 20 21 21 22 23 24 23 22 21 22 24 24 23 21 20 20 19 17 15 15 14 13 14 14
2 5 8 6 6 6 2 3 7 3 0 1 3 3 4 3 0 3 5 6 4 1 3 1 3 5 6 6 5 5 3 1 10 13 16 26 27 27 30 31 33 33 33 34 33 30 27 24 23 23 23 22 20 17 14 15 16 18 18 17 17 18 20 22 22 22 23 24 25 26 23 22 23 23 21 20 19 20 19 16 15 15 14 15 15 14
5 7 4 7 7 6 3 2 6 3 2 3 4 5 4 4 3 5 4 6 5 4 3 4 3 5 5 5 5 1 4 8 3 4 7 15 19 22 29 30 30 32 33 34 33 30 26 25 24 25 24 23 22 19 17 17 18 19 18 18 18 19 21 22 23 25 26 25 25 26 25 22 22 20 20 20 20 20 18 17 16 15 15 15 16 16
8 6 5 7 4 5 4 4 4 6 3 4 4 7 8 7 6 5 3 5 5 5 3 5 5 4 5 4 5 5 3 9 11 7 5 8 10 13 21 25 24 26 29 29 29 27 25 25 25 25 25 24 23 21 19 18 19 18 17 18 20 21 20 20 21 23 26 26 24 22 22 22 22 20 20 20 20 19 18 17 16 15 15 15 16 17
3 4 6 6 5 6 5 5 4 7 5 2 5 8 9 9 6 4 1 2 2 2 3 4 5 2 6 5 5 7 6 9 12 12 12 7 4 9 16 20 22 24 26 25 25 25 26 26 26 25 25 25 24 22 21 21 21 20 18 18 20 20 19 18 19 21 25 27 25 22 20 21 22 22 21 20 19 19 18 18 16 15 16 15 15 17
2 5 5 5 5 5 5 5 5 8 7 3 6 7 8 8 7 5 4 3 2 2 4 4 4 3 3 4 6 8 6 10 12 10 13 14 5 6 11 15 20 21 21 23 23 24 26 26 26 25 25 25 25 23 22 23 23 22 21 20 19 18 17 19 21 22 25 27 26 24 22 22 22 22 20 18 17 17 17 17 16 15 15 15 16 18
2 6 6 6 5 4 5 6 7 10 5 7 6 6 7 7 6 6 6 3 0 2 4 6 1 2 3 5 7 8 6 8 11 11 11 14 14 7 6 8 13 15 16 19 21 23 24 25 25 24 24 25 25 23 22 22 23 23 23 23 21 17 17 20 23 24 24 25 25 25 25 24 22 21 19 18 17 16 16 17 16 16 16 17 19 19
2 7 8 7 5 4 8 7 8 11 7 5 5 4 2 2 3 4 5 4 2 3 3 7 1 2 3 5 5 6 6 5 6 8 9 12 17 14 10 7 6 8 11 15 18 20 21 22 22 22 22 24 24 22 21 21 22 22 22 22 21 18 18 21 24 25 25 25 24 24 25 25 23 21 20 20 18 16 16 17 17 17 17 19 21 20
3 4 4 5 6 8 9 5 10 14 10 4 6 3 2 4 5 3 3 4 3 1 5 8 4 4 1 4 3 3 4 3 2 4 6 10 15 15 13 11 7 6 9 12 14 17 19 20 21 21 21 22 22 22 22 22 22 23 24 23 22 20 20 21 24 25 25 24 23 23 24 25 24 21 20 19 18 17 17 17 18 18 18 19 20 20
4 1 1 5 10 9 4 3 7 12 8 4 4 3 2 3 4 4 4 3 3 3 6 6 4 4 2 4 1 3 5 4 4 4 4 8 12 14 15 13 10 8 7 8 11 15 18 20 20 20 20 21 21 21 21 22 22 23 25 26 24 23 22 22 24 25 24 22 22 22 23 23 23 21 20 19 17 18 18 19 20 19 18 18 20 20
3 3 3 3 9 8 5 0 3 2 3 4 3 5 4 1 2 2 3 0 2 5 4 4 3 2 1 3 1 4 5 6 7 5 5 7 11 13 14 13 12 9 7 7 9 12 15 17 18 18 19 20 20 19 20 21 22 22 24 26 25 25 23 22 23 23 22 20 21 22 22 22 22 21 21 20 19 19 20 21 22 21 19 19 20 21
3 4 3 1 5 8 7 3 1 0 4 6 5 5 5 3 3 1 3 1 2 4 3 3 2 2 1 1 1 2 2 5 8 6 5 8 12 14 14 14 14 11 8 6 6 8 12 14 16 17 19 20 19 16 16 17 18 20 23 24 23 23 22 21 20 21 20 20 21 22 22 21 23 23 22 22 21 20 20 22 23 22 20 20 21 21
3 4 4 4 3 5 7 7 7 5 5 6 5 6 5 5 4 3 3 2 3 3 3 4 1 2 3 2 2 3 2 5 8 6 5 10 13 14 15 14 14 12 8 5 3 4 7 11 13 15 17 20 21 18 15 15 15 18 21 22 20 19 18 16 16 18 19 20 22 21 22 23 25 25 24 22 21 21 21 22 22 22 21 20 20 20
4 5 6 5 3 3 4 5 6 7 4 2 3 5 3 6 6 2 3 5 4 2 1 1 1 1 2 2 1 2 4 6 7 6 8 11 12 14 15 14 14 12 9 7 5 2 1 5 9 13 16 19 21 22 20 18 18 19 18 19 17 14 13 14 16 17 17 19 21 22 23 25 25 25 24 22 22 22 22 21 21 22 22 21 20 20
2 4 6 4 4 4 6 7 5 7 5 1 2 4 3 5 7 5 2 1 2 3 2 1 3 2 2 2 1 2 6 7 7 7 9 11 12 15 16 15 14 12 11 10 8 7 6 3 2 5 9 13 16 19 20 18 18 18 15 16 16 12 11 13 17 20 19 19 21 23 24 25 25 25 25 23 22 22 23 22 22 21 22 21 20 20
3 3 6 1 3 8 6 7 1 1 6 4 3 6 2 3 5 4 2 2 3 2 3 2 2 3 2 1 2 3 6 6 6 6 8 10 12 14 15 15 15 13 12 10 9 11 11 9 8 7 7 7 8 11 14 15 15 15 13 15 19 16 12 12 17 23 24 22 22 25 26 26 25 26 26 24 21 21 24 25 23 23 23 22 20 20
3 1 7 3 5 6 1 5 1 4 2 4 5 6 4 3 1 2 3 1 1 2 2 3 2 2 3 2 4 6 6 6 6 6 7 9 11 12 13 15 16 14 12 11 11 12 12 12 11 10 10 10 11 10 9 11 13 13 12 13 16 16 14 13 17 22 23 22 23 25 26 25 24 26 26 24 23 22 24 26 25 24 24 22 21 21
3 2 5 5 3 2 4 3 2 3 2 3 4 3 2 3 4 3 3 3 4 3 2 1 2 2 3 3 3 6 6 7 7 5 6 9 11 12 12 14 15 13 12 12 12 13 12 12 12 12 11 11 12 11 10 9 10 11 11 12 12 12 13 16 20 20 20 22 23 24 24 23 23 25 25 25 25 23 24 26 25 24 23 21 21 21
2 3 3 6 4 1 1 1 4 6 3 1 3 2 1 2 2 2 1 2 4 4 3 3 1 3 3 2 3 7 7 5 6 6 7 10 12 12 12 13 14 12 12 13 12 13 13 12 12 11 11 11 11 11 10 10 11 11 10 12 12 11 13 17 21 21 20 22 24 23 23 23 23 24 24 25 26 24 25 26 24 22 21 21 21 22
2 3 3 2 4 1 2 4 3 5 6 4 3 3 3 3 4 4 1 2 2 4 4 5 3 4 2 1 3 6 6 4 7 8 9 11 12 13 13 14 14 11 11 12 12 11 11 11 10 9 9 9 11 12 11 10 12 14 10 11 12 11 13 17 19 21 22 22 22 22 22 22 23 22 22 24 25 23 24 24 21 21 21 21 22 22
3 4 3 1 1 2 4 6 4 3 8 7 3 2 3 3 4 5 4 3 1 3 2 4 2 3 2 2 4 5 6 8 9 10 11 12 12 12 13 14 14 13 12 12 12 11 11 12 11 9 8 8 10 12 10 8 10 14 11 8 11 11 12 13 15 16 19 19 20 20 18 17 17 18 20 23 23 22 22 20 20 21 22 22 22 22
2 4 4 1 2 4 6 6 4 6 8 7 4 3 3 2 3 5 5 3 3 3 2 3 1 3 1 3 5 7 11 12 11 11 12 11 11 13 14 13 13 13 13 13 13 12 12 11 10 9 8 8 10 11 10 8 9 11 11 9 9 9 9 10 11 11 13 15 15 16 15 14 14 16 20 21 20 19 18 18 21 22 22 23 23 23
0 1 4 4 2 3 5 5 5 5 4 4 2 4 3 4 4 4 2 3 3 3 3 5 2 3 2 5 6 9 12 12 11 11 11 10 10 11 13 13 13 13 13 13 12 11 11 10 9 10 10 10 11 12 12 11 9 8 9 10 10 9 8 9 10 10 11 12 12 13 13 12 14 17 19 20 19 18 18 20 22 22 23 23 23 22
3 2 3 5 4 3 2 2 2 1 2 2 2 4 5 5 4 3 2 4 2 2 3 5 3 2 5 8 8 9 10 9 10 11 11 10 9 10 11 12 12 13 13 12 12 12 12 11 9 9 10 12 13 13 14 13 11 9 8 9 10 10 9 9 9 10 10 11 11 12 11 11 13 16 17 18 18 19 20 22 22 23 24 23 22 22
4 3 2 5 6 6 6 5 4 2 3 2 2 4 5 3 3 3 4 3 4 3 2 1 5 7 8 9 8 8 8 8 8 10 10 10 10 9 11 11 11 11 11 10 12 12 12 11 10 10 10 12 14 14 14 14 12 11 10 10 11 12 11 10 10 9 10 11 11 11 10 10 11 13 16 18 18 19 21 23 25 25 25 24 24 23
4 3 1 5 5 3 5 3 2 4 4 3 3 5 5 4 5 6 4 1 4 6 1 3 7 11 9 8 8 7 7 7 8 9 10 9 9 8 10 11 10 10 9 9 11 11 12 12 12 12 11 12 14 13 12 13 14 14 13 13 13 12 11 10 10 9 9 10 10 10 10 11 11 13 15 18 19 20 20 23 27 28 25 23 23 21
5 2 0 4 6 5 5 5 6 7 5 6 7 5 6 5 8 7 3 1 2 4 5 7 10 9 6 7 7 7 8 9 9 10 9 8 8 8 10 11 10 9 9 10 11 12 13 13 12 13 13 13 13 12 12 14 15 16 15 14 14 13 11 10 10 11 10 9 9 9 9 11 12 13 14 16 18 19 20 22 25 25 23 22 21 18
4 1 1 5 6 6 6 4 6 8 6 6 8 7 5 4 8 9 3 1 2 3 6 11 11 5 3 4 5 8 12 14 13 12 10 9 8 9 10 10 10 10 10 11 12 12 12 12 12 12 12 11 11 12 12 14 15 16 17 16 15 13 12 11 11 11 10 9 8 8 8 9 12 12 14 16 17 19 20 21 22 22 22 24 22 19
3 1 1 4 6 5 5 5 6 8 8 7 7 7 7 5 6 8 6 4 5 5 7 11 9 4 3 5 6 9 13 16 15 12 10 9 9 9 10 10 10 10 10 11 11 11 10 10 11 11 10 10 11 12 13 15 16 17 18 18 18 16 15 13 13 12 10 8 7 7 7 8 11 13 15 17 18 20 22 23 23 23 23 24 24 20
3 2 1 4 4 1 2 3 5 8 10 8 6 6 7 6 4 4 4 3 3 6 10 9 5 3 4 7 8 8 11 13 14 13 10 8 9 9 8 9 10 10 9 10 11 10 10 11 11 11 11 11 10 11 13 15 17 18 19 20 20 19 16 13 13 12 10 8 7 7 7 8 12 15 16 18 20 21 22 22 23 23 22 22 23 21
3 4 2 3 3 1 1 2 2 5 6 3 3 3 4 3 2 3 3 3 1 6 8 5 4 5 7 8 7 8 8 9 11 12 9 7 8 7 7 8 11 11 10 11 12 12 12 12 11 10 10 10 10 11 12 12 15 18 20 19 17 16 15 12 11 11 9 8 7 6 7 8 11 15 17 19 21 22 21 21 21 21 22 22 22 21
3 4 3 2 3 3 3 1 2 2 1 1 2 2 3 2 4 4 4 5 4 5 6 5 6 8 8 7 7 8 9 9 12 11 9 9 9 6 6 8 10 11 11 12 12 12 11 10 10 9 8 8 9 10 9 10 12 15 17 17 15 12 10 9 9 10 10 8 7 5 5 8 10 13 17 20 23 23 23 23 22 21 22 23 22 22
4 4 3 2 3 3 2 3 2 2 3 2 2 3 3 4 7 8 7 8 6 8 10 10 9 8 10 11 13 14 15 16 17 14 11 12 10 8 8 9 11 12 11 11 11 12 11 9 9 8 7 8 8 8 8 9 10 11 12 14 15 12 8 7 7 7 7 6 5 4 4 8 10 13 17 21 23 25 24 24 24 25 24 23 22 21
5 4 3 2 3 3 2 2 2 3 3 1 1 4 4 3 3 5 7 7 6 4 6 10 10 9 13 17 19 20 20 21 21 18 14 14 12 11 12 11 11 12 11 11 11 11 11 10 9 8 7 8 7 7 8 9 8 8 9 11 13 12 9 7 6 5 4 2 1 2 4 8 10 12 15 17 19 22 23 23 24 25 25 23 22 20
5 4 3 2 2 3 3 2 1 1 2 1 1 2 2 2 3 1 2 3 5 5 4 9 11 12 15 18 20 21 21 21 18 14 12 14 14 14 14 13 12 12 11 11 11 11 11 10 9 8 7 7 6 7 8 9 8 8 9 9 11 11 9 7 6 6 6 5 4 2 4 8 11 13 16 16 16 18 21 21 22 25 26 25 23 20
4 3 3 3 2 2 4 2 1 1 2 2 2 1 2 4 4 2 1 1 3 5 6 9 11 12 14 16 18 17 12 11 7 5 7 11 15 17 17 14 13 12 11 11 10 10 10 9 9 9 7 6 6 7 8 8 8 8 9 10 11 11 10 9 8 7 5 5 6 5 5 9 12 13 16 17 17 19 21 21 21 23 25 26 23 20
7 3 4 5 3 2 4 3 3 3 1 1 2 1 3 4 4 2 1 0 3 8 10 11 12 13 14 15 14 8 2 2 2 2 5 9 13 16 17 17 16 15 13 12 11 10 9 9 9 8 6 6 7 8 8 8 7 6 9 11 11 12 14 14 12 9 6 5 5 5 6 9 11 11 13 14 15 17 19 22 24 22 20 24 26 23
6 5 3 4 3 3 4 2 2 2 1 1 1 3 5 4 2 1 1 2 5 12 15 15 17 17 15 12 8 1 3 2 6 6 8 9 10 12 15 17 18 17 16 15 13 12 10 8 7 7 7 8 9 9 9 8 6 6 10 12 11 14 18 19 16 12 8 6 3 4 6 8 9 11 14 15 14 15 15 18 21 18 14 19 26 25
4 4 2 3 3 3 4 3 0 1 1 2 2 5 5 2 1 3 2 2 8 15 17 18 18 16 12 9 6 5 7 10 13 13 12 11 10 11 13 15 16 17 17 16 15 13 11 9 9 9 10 11 10 9 10 8 7 9 12 12 13 17 18 18 17 15 11 8 5 3 4 5 6 9 15 18 18 20 20 17 16 16 12 16 24 25
1 2 2 2 2 2 3 3 0 1 2 1 2 4 2 1 2 2 2 6 13 18 18 18 16 12 10 11 13 16 18 19 18 16 14 14 14 14 14 15 15 16 15 15 14 14 13 12 12 12 12 12 11 10 10 9 9 11 13 14 17 18 15 14 15 15 14 13 10 7 5 6 6 8 13 15 12 15 19 18 17 17 14 12 16 20
1 1 1 1 1 2 3 2 1 1 1 0 1 1 1 1 3 7 10 12 17 21 20 18 14 12 14 18 22 23 22 20 19 17 16 16 15 15 16 16 16 16 14 14 14 13 13 13 13 13 13 13 12 11 11 11 11 12 13 16 18 17 14 13 13 12 13 15 14 12 9 7 7 8 10 13 12 10 13 16 18 20 19 17 15 14
1 1 1 1 0 1 3 3 2 2 2 2 0 2 3 5 10 15 16 15 18 21 21 19 17 16 20 24 26 25 23 21 19 18 17 16 16 16 16 16 16 16 15 14 14 13 13 13 13 13 13 13 12 12 11 12 13 14 15 16 16 14 14 14 12 10 12 14 15 16 15 12 9 7 7 9 13 13 14 17 20 22 24 24 23 21
1 3 4 2 2 3 3 2 1 0 2 5 8 10 12 13 15 18 20 21 19 20 21 22 22 22 24 28 27 24 22 20 18 17 16 16 16 16 15 15 16 15 14 14 13 12 12 12 12 12 12 12 13 12 12 11 11 12 14 15 13 13 13 13 12 11 12 13 15 16 16 16 14 11 8 8 10 11 13 18 20 21 22 23 23 23
4 6 6 4 4 4 6 6 5 6 10 13 14 15 15 17 16 18 21 22 21 20 22 25 26 26 26 26 26 24 22 20 19 19 19 18 18 16 16 16 16 16 15 14 13 10 9 8 9 10 11 12 13 13 12 11 10 11 12 12 10 11 11 11 11 11 11 12 13 14 14 16 17 16 13 10 10 11 12 15 19 22 23 22 20 20
0 3 4 3 3 3 4 4 5 8 12 15 17 17 17 18 18 20 22 23 23 24 26 27 27 26 25 24 25 26 24 23 22 21 20 19 19 17 16 16 15 16 16 15 14 12 10 10 10 10 11 13 14 14 12 11 10 11 11 10 10 10 9 8 8 9 10 10 10 11 13 16 18 18 16 14 12 12 12 13 14 17 19 19 18 18
1 3 4 3 2 3 4 6 10 14 15 15 18 19 20 22 22 23 26 27 27 28 28 27 27 27 26 26 26 26 24 21 20 18 16 16 15 15 14 13 14 15 14 13 13 13 12 12 13 12 11 12 12 12 11 12 12 12 12 12 12 11 10 9 9 9 9 9 8 8 10 13 15 16 16 16 16 15 14 13 14 15 16 15 15 15
4 4 4 5 5 5 7 10 15 15 13 14 17 21 23 26 28 28 29 28 29 29 28 27 27 27 27 25 22 21 19 17 15 15 14 14 14 13 12 11 12 13 12 11 11 11 11 12 13 13 12 11 10 9 9 10 11 12 13 13 13 12 12 12 12 11 11 10 10 9 9 9 10 12 14 15 16 16 16 16 15 15 16 16 15 14
4 5 5 6 5 3 4 8 10 8 8 12 19 23 24 27 29 30 29 29 29 30 30 30 29 26 24 21 19 18 18 16 15 15 15 15 15 14 13 12 12 12 11 10 10 10 11 12 13 13 13 11 8 8 8 7 8 10 11 13 13 12 12 12 12 12 13 13 12 11 9 8 7 7 9 11 12 13 14 15 15 14 14 15 13 12
6 7 5 4 4 5 9 12 13 13 13 16 22 25 25 27 29 29 30 29 29 30 31 31 29 25 23 21 19 18 18 17 16 16 15 14 14 13 12 11 10 10 11 11 11 10 11 12 13 15 14 10 7 8 8 7 7 8 9 11 11 11 11 11 10 11 12 12 13 12 11 9 8 7 7 8 10 10 9 9 10 10 10 9 8 7
Wind_Direction
171 171 177 192 196 198 201 184 176 169 156 158 122 126 179 279 282 280 270 281 333 289 260 239 226 249 258 242 93 111 130 158 170 161 174 185 192 196 199 204 204 206 210 209 205 201 199 197 193 191 193 194 197 203 208 207 210 217 222 223 223 220 214 212 212 211 210 207 203 203 210 215 217 220 223 226 229 230 230 228 227 222 212 208 207 206
151 178 215 212 203 190 188 182 161 145 149 130 89 302 294 245 261 274 272 301 345 175 269 262 224 250 254 246 56 141 129 151 172 165 176 184 188 195 199 203 204 205 206 205 203 199 199 198 194 196 195 194 198 201 202 204 211 218 223 224 223 215 209 209 209 209 211 210 207 210 217 221 222 224 227 230 232 233 233 230 226 226 219 208 203 204
130 215 233 218 189 143 129 134 130 137 168 130 110 144 271 247 272 293 295 316 343 182 280 270 205 252 264 274 286 191 167 192 187 178 181 184 186 192 198 201 202 203 202 202 202 199 199 197 197 199 196 196 200 203 202 204 215 222 224 226 222 216 212 210 208 209 211 212 214 218 224 227 227 229 231 233 237 236 234 230 226 228 224 213 203 198
173 245 230 190 145 134 132 115 114 102 4 183 146 150 254 253 60 287 296 324 334 310 290 205 186 277 307 316 293 211 175 161 197 200 191 186 187 193 199 202 202 202 201 201 200 199 198 195 198 201 199 201 204 208 210 211 222 232 234 234 228 222 220 218 215 215 216 215 218 222 227 232 233 234 236 235 235 235 233 228 225 225 221 215 204 195
222 241 183 127 131 158 179 152 129 138 264 264 187 171 234 255 209 219 273 324 335 350 4 66 42 320 334 331 312 255 93 56 51 238 220 202 196 198 203 202 201 202 203 202 199 198 196 192 196 200 201 206 208 211 213 214 222 231 235 238 235 228 223 221 215 216 221 221 223 227 231 237 238 236 236 234 232 232 231 226 224 223 218 214 205 197
238 233 146 118 135 156 171 208 172 162 204 297 236 196 213 238 238 239 315 359 20 359 338 65 56 304 317 318 302 320 26 45 37 23 321 247 215 206 207 201 199 203 206 205 200 196 192 191 196 198 199 203 207 210 211 210 210 213 217 222 228 227 222 220 217 217 223 225 228 233 235 241 242 238 236 235 236 236 234 228 223 219 216 213 206 200
232 180 157 154 159 158 176 223 205 162 153 277 243 201 205 230 237 232 278 46 79 286 295 68 104 241 316 329 317 334 3 37 39 29 2 336 216 203 210 205 202 205 206 204 199 195 192 194 197 198 199 204 208 211 214 214 208 203 204 209 216 219 217 219 222 224 226 228 231 235 240 244 244 242 241 239 240 242 243 237 227 221 217 210 202 197
161 147 164 162 156 163 184 225 204 154 136 232 234 183 193 225 221 186 148 135 193 234 326 4 102 136 297 293 320 344 17 33 34 32 13 12 34 183 198 205 209 211 209 201 198 197 195 197 198 198 202 206 210 212 215 220 218 211 209 211 212 210 209 213 217 224 228 229 232 238 245 247 244 245 244 239 238 244 247 243 236 228 217 202 191 191
151 158 179 163 158 179 204 217 179 149 162 236 220 173 191 208 192 165 131 130 194 69 335 312 39 95 272 281 332 1 39 29 21 37 36 30 40 73 142 182 204 213 213 203 198 198 199 199 200 201 205 209 213 215 216 221 223 221 219 219 217 213 213 212 210 216 224 229 234 242 249 249 246 246 244 240 239 242 242 240 236 226 210 196 189 190
214 193 191 157 154 204 221 216 157 158 206 221 166 174 220 69 97 118 118 122 60 66 246 265 253 133 261 297 343 11 33 7 354 26 44 49 54 62 74 96 156 187 198 202 204 205 206 206 206 207 211 215 218 219 222 226 227 227 227 224 219 221 223 215 210 213 220 227 234 240 247 250 249 246 242 241 241 240 236 232 228 217 204 198 194 192
272 221 200 155 181 215 225 210 160 183 209 152 120 176 245 18 38 48 71 101 82 332 248 245 220 136 215 295 353 19 346 333 350 19 34 51 61 68 72 76 88 129 170 193 206 211 213 214 215 214 217 221 224 225 228 233 236 237 237 232 226 229 231 220 214 216 220 224 229 235 243 250 252 249 245 245 238 230 228 224 218 210 204 201 199 197
330 270 222 197 208 211 212 209 184 200 209 144 112 136 168 309 4 23 357 53 113 249 259 236 206 108 143 252 310 7 346 25 56 33 39 57 67 77 85 91 92 104 139 170 192 207 214 219 220 219 222 226 229 232 235 240 246 247 245 240 236 236 231 220 217 219 220 223 227 235 242 248 252 250 248 249 237 223 223 221 212 206 205 204 203 204
308 235 255 239 219 193 146 227 249 224 169 150 123 109 139 247 8 350 298 42 176 240 245 202 180 93 133 236 339 14 7 35 45 23 33 64 74 80 87 95 100 109 127 149 178 198 209 218 223 224 227 229 230 237 243 246 251 253 252 250 248 244 232 218 215 218 221 225 231 237 242 246 248 245 244 244 235 223 220 218 210 205 205 206 207 206
294 288 283 261 238 198 158 149 235 240 159 166 159 147 160 141 101 268 271 254 245 250 261 239 186 147 193 210 87 73 12 45 57 35 28 61 72 74 77 84 92 98 106 128 169 194 206 216 223 226 228 226 225 235 247 251 252 254 256 253 250 248 237 221 213 217 221 226 232 236 240 242 242 241 238 235 231 224 218 214 211 208 206 207 208 206
205 286 246 196 224 188 168 180 188 174 164 176 164 143 157 152 144 208 211 189 234 242 284 287 216 166 181 156 119 126 91 66 75 65 54 65 69 72 74 76 81 79 78 94 133 184 205 218 226 230 232 230 229 234 246 258 259 257 254 249 245 243 238 224 214 219 224 227 231 231 232 235 238 239 236 232 230 227 219 213 210 208 206 207 209 208
179 245 249 234 231 162 172 198 165 138 142 207 148 113 157 182 147 139 178 180 193 180 320 305 105 139 149 119 47 82 77 71 84 82 71 68 63 65 66 64 66 63 57 59 55 54 189 222 230 233 235 237 239 240 248 262 270 268 258 249 246 237 226 218 214 220 226 228 228 225 224 229 234 237 235 230 228 226 221 214 211 207 203 204 207 208
140 250 278 290 279 247 211 197 164 156 165 136 132 154 207 176 126 113 183 221 111 140 243 237 110 89 118 122 325 47 67 65 72 70 70 71 63 58 56 53 53 53 54 51 42 42 45 30 306 262 253 253 254 254 257 266 277 280 268 250 244 229 212 217 220 220 223 225 224 222 221 223 227 232 233 229 226 225 222 215 211 207 201 200 203 207
147 261 285 253 248 270 219 178 204 184 141 117 169 190 180 96 95 109 138 6 40 149 256 316 106 149 151 172 199 115 86 76 81 83 81 73 62 57 54 52 52 52 55 52 48 55 54 47 40 21 359 333 307 289 277 272 277 284 278 256 247 236 222 225 224 220 222 224 222 222 223 221 224 230 231 229 227 228 223 215 210 205 199 197 199 205
140 274 291 234 210 284 11 125 358 334 102 131 166 164 129 128 158 115 128 124 108 180 266 352 24 180 171 197 183 142 123 117 111 103 88 68 59 59 55 56 60 58 57 57 57 60 59 52 49 40 25 11 359 347 321 292 281 282 281 270 257 245 231 223 220 222 227 228 224 224 226 224 226 231 231 227 226 227 223 216 209 203 197 194 197 201
120 122 289 276 236 302 21 82 187 266 326 72 104 116 106 138 163 155 142 151 153 180 213 49 0 251 204 220 177 140 144 144 128 102 79 66 61 61 55 57 63 62 62 66 66 68 71 68 60 52 36 18 10 4 353 330 303 289 281 272 257 244 232 218 218 229 234 227 224 226 226 226 230 233 230 226 225 225 222 215 209 202 195 192 193 195
96 111 243 288 323 9 18 299 207 199 194 101 103 147 185 83 116 146 123 118 137 155 175 148 241 263 236 231 153 145 158 151 121 95 79 73 66 59 53 57 64 65 66 71 73 73 78 79 68 57 46 35 31 27 14 355 337 324 301 278 263 245 234 224 220 227 229 223 224 228 227 226 229 229 228 227 225 223 219 212 204 200 196 192 191 190
147 133 185 278 354 42 260 304 269 185 155 146 145 166 174 132 117 134 189 288 102 122 162 159 192 262 266 86 127 145 152 126 105 98 85 74 67 60 56 65 74 74 71 73 80 81 82 83 75 65 58 50 48 49 40 19 360 354 334 292 280 265 245 234 225 224 226 228 233 236 233 231 229 225 225 227 224 221 217 207 197 196 195 194 193 190
139 112 126 218 304 236 273 315 338 83 98 97 92 114 132 123 120 133 187 239 86 91 139 118 116 271 270 110 123 128 117 104 100 100 89 75 70 69 65 69 76 80 78 77 80 81 78 80 78 69 62 56 55 51 43 32 12 1 351 316 295 284 261 244 236 233 236 240 246 250 249 248 240 228 224 226 224 221 216 201 192 194 194 191 191 191
93 93 101 140 317 315 303 312 350 33 62 70 44 26 57 80 114 136 168 181 127 139 147 88 89 260 232 112 126 119 106 96 89 90 92 86 80 78 74 71 70 75 80 79 78 79 79 80 76 64 53 48 51 47 36 29 17 1 352 338 318 303 283 264 256 253 252 255 263 265 262 260 251 233 227 227 222 217 210 198 194 192 189 189 188 188
108 114 106 106 63 349 333 334 351 6 34 64 24 346 7 51 84 118 131 79 101 177 151 122 188 248 148 128 126 113 99 86 77 75 82 88 84 80 82 82 75 74 80 80 76 74 74 74 66 54 44 36 36 35 30 22 14 2 343 332 330 321 303 286 276 273 270 270 275 272 261 255 248 233 228 229 221 211 206 200 196 190 186 188 187 185
125 123 117 123 145 175 198 238 237 264 23 51 33 2 13 49 81 130 114 79 120 191 107 122 179 198 139 135 125 112 103 92 79 70 65 69 71 74 83 87 80 77 78 74 69 66 63 61 54 44 35 26 19 15 15 12 8 4 342 326 328 322 308 296 285 279 276 271 267 264 254 247 241 229 227 229 218 207 206 202 197 193 187 185 185 184
107 67 100 130 146 177 189 207 211 140 86 81 51 11 6 29 61 94 107 128 171 143 54 254 171 144 139 136 123 112 106 99 82 66 56 53 58 69 80 82 78 77 73 62 59 60 58 53 43 34 28 19 10 4 4 5 5 2 348 335 331 324 318 311 296 285 279 271 262 255 241 229 224 216 219 226 217 209 208 204 199 195 187 185 187 186
96 52 54 100 90 142 160 154 97 80 75 71 55 11 355 32 64 75 90 147 146 122 100 246 160 139 139 131 122 115 105 97 78 64 55 47 50 65 78 82 83 81 73 62 55 51 50 48 39 30 24 15 7 2 3 6 7 7 359 350 344 335 329 325 320 314 301 287 277 266 240 217 211 210 214 222 219 212 207 199 195 190 185 187 187 183
113 95 55 88 64 57 86 96 92 89 75 51 48 18 354 35 77 86 71 321 123 139 172 170 145 134 131 121 116 113 106 99 87 77 70 61 60 70 77 80 82 77 66 59 53 46 46 43 36 31 25 17 9 5 6 6 8 11 4 358 358 349 333 327 328 326 318 302 287 278 253 221 214 215 215 216 212 207 201 196 191 186 183 183 179 177
108 78 66 99 79 47 38 59 93 101 97 58 40 23 3 41 90 96 83 15 80 113 139 133 120 97 94 111 109 110 108 102 94 87 82 72 65 68 69 67 70 67 57 52 48 44 43 38 32 30 22 15 14 12 10 9 11 11 2 359 7 0 344 337 332 332 331 313 287 280 267 232 215 211 208 203 197 192 191 190 185 181 182 178 172 177
70 133 179 89 81 40 20 44 77 96 105 82 45 23 13 29 74 90 94 85 72 75 101 111 110 89 85 109 110 108 105 101 92 81 75 74 72 69 63 57 62 63 53 49 47 40 38 34 29 25 18 15 15 11 8 9 9 8 4 4 5 359 351 345 341 347 351 330 299 283 268 233 208 200 195 190 184 180 182 182 178 179 186 180 173 179
69 122 52 69 89 39 13 78 99 100 94 78 49 17 6 15 42 69 93 101 120 133 124 118 130 158 135 122 110 92 90 96 95 86 77 74 75 73 64 58 63 62 52 51 49 40 35 31 26 23 19 20 19 10 7 7 4 4 8 9 3 356 355 350 345 353 358 341 317 284 257 229 204 195 188 185 181 175 176 179 179 182 187 181 174 179
97 117 88 89 110 134 142 144 122 93 83 56 24 359 338 345 33 40 40 23 59 148 146 150 158 141 127 126 115 88 77 82 89 92 94 90 83 78 75 73 73 68 59 52 49 43 36 29 26 26 20 20 27 25 17 10 5 5 8 6 356 353 358 354 344 346 346 336 325 284 243 222 207 200 194 188 182 175 177 182 182 185 188 181 175 180
75 98 119 123 111 132 149 112 17 56 136 253 321 333 321 14 78 76 36 11 40 106 111 98 107 113 114 121 119 107 98 91 88 93 106 111 104 93 88 89 85 77 65 54 51 49 42 32 30 32 28 27 36 37 31 26 20 11 5 359 350 347 359 1 346 340 335 323 319 302 240 212 207 208 204 192 181 179 183 182 179 183 187 181 178 182
92 88 110 101 93 120 116 63 69 199 225 243 321 342 6 59 88 89 59 29 53 98 105 101 102 108 110 112 112 109 105 101 96 93 100 108 109 105 98 90 85 81 72 61 58 56 52 44 37 36 37 36 37 35 32 33 29 15 3 360 355 350 0 10 358 353 346 318 304 306 250 207 200 210 209 196 187 186 186 181 177 179 183 183 183 186
128 121 112 85 89 118 98 77 151 229 265 263 355 351 8 31 61 78 59 28 23 55 108 119 116 115 117 118 117 113 105 97 87 79 84 97 100 98 93 85 81 82 76 68 64 62 59 55 46 44 45 41 39 38 34 32 32 26 18 11 2 358 5 12 11 28 36 9 284 269 231 200 192 201 201 194 191 189 184 183 183 180 179 185 188 187
121 124 106 83 96 126 116 96 122 254 277 233 71 8 18 6 329 1 74 42 29 34 90 123 123 124 126 125 125 122 110 94 80 65 70 87 93 92 89 84 81 79 75 71 68 65 65 62 56 52 48 44 46 49 45 39 36 33 30 22 11 5 5 6 13 41 63 69 82 132 197 191 185 186 183 184 195 194 186 186 191 186 180 184 189 188
82 119 147 133 110 112 110 103 125 173 226 188 150 58 14 0 324 306 50 66 74 91 119 129 127 130 132 135 140 138 117 90 76 52 67 85 90 90 89 88 85 81 77 75 73 74 76 73 67 59 47 42 47 46 45 38 26 22 29 34 30 22 20 21 22 30 53 77 89 111 162 178 181 182 181 185 196 199 191 190 195 192 182 180 185 188
49 57 104 109 103 116 116 128 181 193 210 182 176 278 341 343 323 327 40 116 145 141 144 139 132 137 144 149 155 157 116 92 132 109 95 98 94 91 91 92 90 88 85 82 78 78 77 74 74 70 54 48 48 43 43 39 23 24 45 50 46 41 41 41 36 26 27 55 91 117 144 160 168 173 177 184 195 203 202 198 197 199 191 179 176 179
30 19 56 106 141 153 130 131 196 202 197 179 223 290 309 311 294 175 170 209 165 157 157 150 143 147 153 155 157 120 3 135 148 124 111 113 105 98 96 92 90 89 89 87 82 79 79 77 79 78 66 56 52 46 47 46 36 49 63 62 58 54 52 48 42 34 26 28 70 131 146 151 154 154 155 158 166 178 185 185 181 185 191 179 170 170
22 17 61 124 128 124 123 124 164 262 188 191 277 298 299 291 192 181 205 188 158 158 161 156 150 151 157 159 148 95 83 111 125 122 118 117 111 106 103 97 94 93 90 89 87 85 86 85 82 79 73 66 60 55 54 54 53 59 64 66 65 63 61 56 51 48 46 48 67 119 142 142 145 151 149 143 141 142 141 142 151 156 163 169 167 167
37 20 24 89 106 115 115 112 115 260 182 176 306 305 291 208 197 181 126 134 147 151 157 158 153 151 149 139 125 116 112 116 120 120 119 116 111 108 106 103 99 94 89 88 88 88 90 91 88 86 82 77 74 71 67 66 66 65 64 62 60 59 61 64 61 57 59 65 75 93 115 128 136 152 161 162 154 138 133 142 160 167 168 172 167 163
153 95 58 69 112 116 98 96 157 215 196 52 340 303 298 279 164 133 114 120 140 147 152 153 149 150 145 130 121 120 120 119 121 120 116 113 110 106 104 99 93 88 85 83 82 82 86 88 86 83 80 77 76 77 76 77 76 74 71 65 58 52 51 58 64 64 66 67 69 76 84 100 124 138 155 171 180 170 151 161 181 192 196 202 203 193
266 173 162 204 219 121 143 171 211 248 285 300 164 131 108 126 142 137 124 119 131 144 149 145 139 146 147 135 127 125 124 122 123 121 116 112 107 104 101 97 91 88 85 83 80 78 79 79 77 76 73 68 65 65 69 73 75 75 75 72 67 60 54 54 57 63 70 70 69 71 70 70 89 120 142 165 179 185 182 184 192 198 199 202 209 213
153 108 104 99 83 98 119 155 212 171 62 90 111 114 114 124 138 140 132 125 127 138 145 141 135 138 140 135 130 127 125 124 123 121 119 114 109 106 102 96 92 90 86 84 82 77 74 73 71 70 68 62 55 52 53 59 65 69 69 69 69 67 62 58 57 55 58 62 64 69 72 67 67 77 99 141 165 176 182 186 189 190 192 195 199 203
127 110 96 97 122 105 67 53 70 88 85 93 107 115 119 126 133 134 130 125 125 132 137 136 133 133 134 134 132 127 126 126 123 119 115 110 106 104 100 95 92 88 80 75 72 69 70 72 67 62 60 55 49 43 41 43 49 55 58 58 59 59 53 51 58 59 55 51 51 57 67 68 62 60 69 95 125 139 152 168 177 178 180 182 184 182
171 115 97 102 150 137 67 46 76 94 95 99 106 110 115 120 124 128 126 123 124 127 128 129 130 130 131 131 128 123 120 119 115 111 105 101 99 97 97 96 90 80 71 64 62 63 69 74 71 65 59 54 48 42 37 36 39 41 43 44 47 48 42 36 47 60 62 58 50 47 54 60 60 58 60 69 86 105 120 135 148 155 158 161 162 161
151 122 105 93 95 94 97 106 104 100 101 105 108 111 115 115 117 120 121 122 124 124 125 128 130 129 127 124 120 116 114 112 110 107 103 101 99 99 102 100 85 74 68 61 57 59 65 69 68 64 60 56 52 46 43 44 45 43 39 38 38 40 41 39 41 50 60 65 65 57 55 58 60 60 61 66 72 81 92 107 120 126 129 135 141 144
130 112 108 114 106 88 98 117 114 101 94 99 108 113 117 118 119 119 121 124 125 125 125 127 127 124 120 116 112 110 108 107 108 108 108 107 105 106 110 105 86 75 69 59 56 60 63 61 58 55 55 55 50 48 51 55 56 53 49 45 40 36 38 41 42 47 53 59 63 63 59 58 59 58 59 64 69 74 78 85 95 106 114 119 124 127
108 113 123 127 126 120 136 145 136 114 98 108 115 117 120 123 123 123 125 127 127 127 127 125 121 118 113 110 109 110 110 111 112 111 110 106 101 101 106 103 90 78 66 55 56 62 61 56 50 47 50 52 50 51 57 64 68 64 59 55 49 44 45 49 53 57 57 55 55 53 48 44 45 46 47 51 56 65 76 81 83 87 96 103 107 111
127 153 158 126 106 122 141 143 132 117 111 118 121 122 125 127 127 126 127 128 128 129 130 127 123 119 114 111 111 112 113 116 118 115 111 105 100 99 102 101 92 80 69 62 60 59 57 52 45 42 46 53 56 58 64 75 81 77 71 66 58 51 51 56 61 65 66 63 60 56 50 45 42 36 31 31 34 38 51 72 82 83 82 82 84 85